GFSSGP_850_thetae_273.txt.gz
Theta_e
330 332 334 335 330 327 331 344 344 346 345 344 343 341 339 339 340 342 335 331 324 324 325 327 326 323 324 323 323 324 324 325 325 325 326 326 327 326 326 326 326 326 325 325 325 324 325 326 326
327 331 334 333 330 332 332 335 345 345 343 343 343 340 343 344 346 344 340 339 326 324 324 324 324 323 323 324 324 325 325 326 328 329 331 331 332 332 332 331 331 330 328 327 326 326 326 325 325
327 331 334 327 328 332 336 344 344 343 344 346 343 342 342 344 345 343 342 341 328 324 325 325 324 324 324 324 325 326 327 329 331 332 333 334 334 334 334 334 334 334 333 331 329 328 326 326 326
331 333 333 330 334 332 339 343 344 344 345 346 346 346 345 343 344 344 342 340 333 327 325 325 325 325 325 325 326 328 330 331 332 332 332 331 331 330 330 333 338 335 332 332 333 332 331 329 327
326 331 326 329 333 332 333 344 344 341 341 345 345 345 345 342 343 343 344 344 344 342 334 326 325 325 326 327 328 331 333 332 331 332 335 337 338 339 338 336 340 342 340 339 336 337 334 331 329
325 327 324 326 331 331 332 344 340 339 342 343 344 344 344 344 344 344 341 338 336 339 333 330 330 329 330 333 334 332 332 335 336 337 335 334 335 338 337 336 337 340 337 336 334 337 337 334 329
322 323 327 330 332 332 334 340 339 339 341 343 342 342 345 344 345 345 341 334 331 332 333 334 333 333 333 331 332 335 335 332 328 323 328 331 330 335 336 334 337 338 335 336 336 336 336 337 336
325 325 333 331 331 333 333 339 340 337 338 338 337 343 344 345 345 346 345 339 338 339 341 341 335 336 334 335 339 339 335 331 330 326 319 326 326 325 327 331 333 335 333 332 333 334 333 334 336
325 324 328 331 332 331 335 334 340 339 338 343 343 340 344 343 344 345 346 343 342 343 344 343 342 339 340 341 341 339 335 333 328 327 325 324 323 323 321 323 328 330 330 330 330 330 329 329 329
322 320 322 327 329 327 332 337 340 341 341 343 341 340 344 346 345 345 346 345 345 345 344 342 341 341 338 336 342 333 337 334 329 327 326 326 326 325 324 320 318 317 318 323 325 325 325 326 326
321 320 320 328 333 331 329 333 339 341 341 341 344 344 345 345 344 342 341 339 341 341 343 340 342 342 343 333 334 336 331 329 328 328 327 327 326 325 324 323 322 321 318 318 317 317 320 321 321
321 322 325 330 333 331 327 334 338 341 341 340 339 344 344 344 340 338 337 338 338 342 340 342 339 341 332 329 329 329 327 328 328 328 327 327 325 325 324 324 325 324 323 321 319 319 318 318 319
320 321 324 329 328 331 329 332 338 338 342 342 344 344 342 342 339 331 336 337 339 341 341 340 340 333 330 328 327 328 328 327 327 327 326 326 326 326 326 326 325 324 323 323 322 321 321 321 319
323 322 323 324 328 329 328 330 334 333 343 344 343 343 341 340 337 332 333 336 340 341 338 335 339 335 330 328 328 327 327 328 328 326 325 326 327 326 324 326 325 324 323 322 323 322 321 320 320
323 321 320 322 327 327 331 331 330 336 343 343 343 342 342 340 335 333 334 338 340 341 339 325 321 327 329 327 322 323 323 322 323 324 325 326 327 326 324 325 325 324 323 322 322 322 321 321 321
319 318 319 318 325 328 324 325 325 337 341 340 341 340 340 339 334 334 333 333 335 338 337 323 322 321 323 320 322 322 322 323 325 326 327 328 327 326 324 322 323 325 325 324 324 323 322 322 321
316 321 321 323 323 326 323 326 326 335 340 337 339 339 339 339 333 333 335 331 332 334 332 326 323 322 324 325 323 327 329 329 328 330 331 330 325 320 319 319 320 321 323 324 324 323 322 321 321
322 323 322 322 321 319 321 323 321 331 336 337 337 338 340 339 334 332 333 331 333 332 331 329 328 326 326 324 329 332 333 332 332 325 319 316 313 312 313 314 315 315 315 316 317 318 318 318 316
323 323 325 324 321 321 320 320 319 326 336 336 336 336 338 338 334 335 331 331 332 332 332 331 329 328 327 330 333 333 333 332 323 318 314 313 312 314 315 315 315 313 313 314 315 315 315 314 315
322 323 322 323 322 321 321 324 324 327 335 336 336 335 336 337 335 332 333 332 332 332 331 330 329 328 331 333 332 332 329 321 318 315 315 313 314 316 316 315 314 313 313 314 315 316 316 316 315
323 324 324 324 323 321 320 325 324 328 334 336 336 335 335 335 335 333 334 331 331 332 333 331 330 332 333 331 329 323 319 316 316 315 314 313 316 316 314 312 311 311 311 313 313 313 313 313 312
325 324 326 326 323 324 319 324 323 323 329 334 335 335 335 336 335 333 334 330 330 331 333 332 333 333 332 323 321 319 317 317 315 314 314 315 316 315 313 312 311 310 310 312 312 312 312 311 311
325 325 323 323 323 319 320 321 322 322 325 328 334 336 336 336 335 335 335 331 331 330 333 333 333 331 323 320 319 318 317 315 314 314 315 316 315 313 312 311 311 310 310 311 312 312 312 312 311
323 323 320 319 317 320 320 323 324 322 324 323 323 333 336 336 336 334 333 333 331 331 334 333 330 322 320 319 318 317 315 314 314 315 315 314 313 312 312 311 310 309 309 310 312 312 312 311 311
321 319 321 321 322 323 319 323 321 321 322 322 326 331 333 334 335 333 331 331 333 332 330 326 322 321 319 318 317 315 314 315 315 315 314 313 312 311 311 310 309 308 309 310 310 310 310 310 310
322 320 320 325 322 320 321 324 322 321 322 323 329 330 331 334 333 333 331 331 331 329 324 322 320 319 318 316 315 315 315 315 315 314 313 312 311 310 309 308 308 308 308 308 309 310 310 310 310
325 323 319 319 320 321 320 323 322 322 322 321 326 330 329 330 331 331 331 331 326 323 321 320 319 317 315 315 314 314 314 315 314 312 312 311 310 308 308 307 308 308 308 308 309 309 310 309 309
325 321 324 320 327 327 322 324 323 323 323 321 322 324 326 328 328 330 329 325 322 321 319 318 316 316 315 314 313 313 314 313 311 308 308 308 308 308 309 309 309 309 309 309 308 308 308 308 308
326 323 319 318 320 323 324 322 319 320 320 319 321 322 322 323 323 324 324 322 321 319 318 317 316 315 314 312 313 313 312 311 309 307 307 308 309 309 309 309 309 309 309 308 308 308 308 308 308
324 324 318 320 322 321 319 320 319 318 320 321 321 321 322 322 322 321 321 319 318 317 317 316 316 315 312 313 313 312 311 310 308 307 308 309 310 310 310 310 308 308 308 307 307 307 307 307 307

GFSSGP_850_thetae_276.txt.gz
Theta_e
325 331 334 335 329 329 332 345 342 344 344 343 340 340 339 338 340 340 327 324 326 328 330 330 327 324 323 323 323 324 324 325 326 328 329 330 330 330 330 330 330 329 327 326 325 325 325 325 326
326 331 334 333 328 333 336 336 345 343 343 342 341 341 342 344 345 337 334 327 325 325 325 325 324 323 323 323 324 325 326 329 330 332 333 333 334 334 334 334 333 333 332 330 328 327 326 325 325
327 332 332 325 325 330 335 340 343 342 342 342 340 342 342 344 344 341 341 338 324 324 324 324 323 323 324 324 325 327 329 331 332 333 333 332 331 330 330 333 335 333 332 331 331 331 330 328 327
327 332 332 327 333 330 342 343 342 342 344 346 345 344 344 343 342 339 335 334 328 324 324 324 324 324 325 326 327 328 331 332 332 331 331 334 335 334 334 337 340 340 338 338 336 337 335 332 330
326 329 323 324 332 332 339 343 343 342 342 345 343 343 344 343 342 341 343 342 336 330 325 325 325 325 326 326 328 331 332 331 333 334 335 334 335 335 335 333 334 339 338 337 336 334 335 333 329
325 324 320 323 330 330 337 344 344 339 344 343 342 343 343 342 343 341 342 343 340 339 330 326 326 326 327 329 332 332 332 335 333 332 331 330 329 331 330 328 331 333 333 335 334 333 333 335 335
323 319 323 327 331 331 335 344 340 339 341 343 341 342 344 344 344 337 338 335 335 335 333 329 329 329 330 332 332 333 334 329 321 321 320 320 323 320 320 320 322 325 330 331 331 330 331 329 332
325 322 330 330 330 334 332 341 340 341 341 341 340 342 344 344 344 340 335 336 336 335 336 333 332 332 332 332 335 336 332 328 326 324 323 321 322 322 320 318 317 320 324 327 330 329 329 329 328
325 319 323 331 331 332 336 336 339 338 339 340 339 339 342 344 345 344 339 340 340 339 337 339 336 335 335 338 339 337 334 332 327 326 326 325 325 325 324 323 322 320 318 318 322 322 323 324 324
322 318 321 325 329 329 334 337 337 339 339 342 340 338 343 341 344 341 341 341 341 341 341 337 339 338 337 337 339 336 335 333 328 327 327 327 327 326 326 324 323 323 321 319 320 317 317 317 317
319 317 318 322 331 333 335 336 338 338 338 342 342 340 342 340 341 340 344 342 340 341 342 341 341 340 338 336 336 338 332 333 328 328 327 327 327 326 326 325 325 325 324 323 322 320 319 319 318
320 320 322 327 330 329 331 335 340 336 338 342 332 331 339 338 340 341 341 343 343 343 342 342 342 343 343 342 331 333 329 328 327 327 327 327 326 325 326 326 325 325 324 323 323 322 321 321 320
319 320 321 328 332 329 332 335 339 339 338 340 337 337 340 336 340 342 340 341 343 341 341 342 342 340 342 330 329 328 327 327 326 326 326 326 325 326 326 326 325 325 325 324 323 323 322 321 321
321 320 322 322 329 328 330 330 339 340 339 339 341 341 342 339 340 338 338 340 341 340 342 342 342 338 329 328 328 328 327 326 324 323 325 324 325 326 327 325 324 325 325 324 322 322 322 322 321
320 320 317 320 326 326 330 329 329 338 340 341 343 343 343 343 342 339 334 336 340 341 340 338 336 329 328 328 327 326 321 321 320 322 325 327 328 329 328 327 324 323 323 324 324 322 322 320 321
318 316 318 320 324 326 327 326 327 333 340 342 343 343 343 342 340 336 336 338 340 341 340 336 331 330 328 326 322 321 322 324 326 327 329 330 324 315 312 312 314 317 319 321 324 324 323 322 322
316 321 321 322 320 326 322 324 324 337 342 341 342 342 342 340 339 335 333 333 333 339 337 332 324 327 326 324 324 325 328 332 331 331 327 319 314 313 310 312 313 313 314 315 316 318 319 321 321
323 323 322 321 320 318 318 319 319 336 340 337 339 341 340 340 339 335 333 333 331 333 333 329 326 325 326 328 326 329 332 332 331 325 319 314 314 311 311 314 315 315 314 314 313 313 314 315 315
321 323 324 323 321 318 320 322 322 330 335 336 338 340 341 340 339 336 333 334 331 331 332 331 331 330 330 328 329 332 331 332 323 318 315 315 313 310 314 315 315 314 312 311 312 313 314 315 314
322 322 322 321 321 320 324 323 324 331 334 335 336 338 340 340 340 337 334 334 331 332 332 332 331 331 330 328 332 331 330 322 318 316 316 314 311 312 314 315 314 312 311 311 310 312 313 316 316
323 323 324 324 321 319 322 325 321 326 333 335 336 337 337 339 339 339 335 334 332 332 332 332 331 330 330 331 332 327 322 319 317 316 315 312 312 314 315 314 312 312 311 311 310 312 313 312 313
325 323 324 324 322 322 318 326 322 321 328 332 335 335 335 335 335 335 335 333 333 331 331 331 331 332 331 331 329 322 320 318 317 315 314 313 314 315 314 312 312 311 310 310 310 311 312 312 312
325 321 322 321 319 319 318 322 321 322 329 329 332 334 334 334 335 335 335 333 333 331 330 330 331 332 332 331 322 320 318 317 315 314 313 314 314 314 312 311 310 310 309 309 309 310 312 312 312
321 321 317 316 315 319 318 321 322 322 323 323 324 330 333 334 335 335 335 334 334 333 330 330 332 332 330 322 320 318 318 315 314 314 314 314 314 313 312 310 309 308 308 308 309 309 311 312 312
319 317 318 319 320 321 317 321 320 319 320 321 324 329 331 332 333 335 334 332 331 331 331 331 333 329 322 320 319 317 315 314 313 314 314 313 312 310 309 308 308 307 307 308 308 309 310 310 310
320 319 319 325 322 320 319 324 321 320 321 322 325 329 330 328 332 332 332 331 331 331 331 330 327 322 320 319 317 315 313 312 313 314 312 309 307 307 308 308 308 308 308 308 308 307 308 309 309
324 322 318 318 318 320 319 321 320 321 321 321 326 330 328 329 328 328 329 328 331 330 329 328 322 320 318 316 315 313 311 313 313 311 309 307 307 308 309 309 309 309 309 309 309 309 308 308 309
324 318 323 319 326 327 322 322 322 322 321 319 321 325 327 328 326 327 327 327 328 327 323 321 319 318 316 315 313 312 312 311 311 309 308 307 308 309 309 309 309 309 309 308 308 307 307 308 308
324 322 318 317 319 323 323 320 317 319 319 318 322 324 325 326 326 326 327 327 325 322 321 319 317 316 315 313 312 312 311 311 310 307 307 307 308 309 310 310 310 309 308 307 308 307 307 308 307
323 321 317 321 321 319 318 320 317 317 319 320 321 323 324 323 322 323 325 325 322 320 318 317 316 316 314 313 313 312 311 311 307 306 307 308 309 310 309 310 309 308 307 307 306 307 308 307 307

GFSSGP_850_thetae_279.txt.gz
Theta_e
327 333 336 334 337 340 345 347 344 344 342 342 341 341 339 339 340 345 332 327 330 333 334 330 325 324 323 323 324 324 325 327 329 331 332 333 333 334 333 333 333 332 330 328 326 326 326 326 326
330 333 334 332 338 340 344 343 346 343 344 343 341 342 344 345 344 332 326 325 327 328 327 325 323 323 323 324 325 326 328 330 331 332 333 333 332 332 331 332 333 331 331 330 330 329 328 327 326
328 332 333 335 335 339 343 344 346 344 343 342 341 342 343 344 341 335 337 325 324 324 325 324 323 323 324 325 326 328 330 331 332 332 331 331 331 330 334 337 338 335 333 334 334 333 332 331 329
326 330 330 336 337 335 342 344 344 343 344 343 342 342 344 343 342 341 341 329 324 324 324 324 324 324 325 326 327 329 331 332 331 331 334 335 336 334 334 332 335 337 337 336 336 334 333 334 331
326 327 330 336 336 336 340 344 343 344 344 345 343 342 343 344 340 337 336 331 326 324 324 324 325 325 326 327 328 331 332 332 334 333 332 332 330 332 331 326 327 329 329 332 334 333 331 332 334
327 325 331 334 335 335 343 344 344 344 344 344 342 342 343 343 342 342 342 339 334 330 325 325 325 326 327 328 332 332 332 334 330 325 324 324 323 320 320 319 318 317 322 325 325 326 328 326 327
327 328 330 331 334 336 344 344 344 343 344 343 341 342 344 343 337 333 338 337 339 334 329 327 328 328 329 332 332 332 334 327 323 320 321 322 322 320 320 318 318 318 317 317 320 325 327 327 327
325 328 332 334 335 336 339 344 342 342 343 341 341 339 344 344 341 334 331 331 332 331 332 331 332 331 331 331 332 334 332 326 325 323 323 322 323 324 324 324 323 322 321 317 318 318 319 321 320
325 328 329 332 335 335 336 345 339 340 341 340 340 342 342 341 341 337 334 334 333 334 334 332 331 332 332 332 335 336 332 331 327 326 325 325 325 325 325 325 325 325 324 321 320 320 318 317 318
325 327 327 328 334 336 336 343 341 339 339 339 341 340 340 341 341 339 337 338 338 338 338 335 334 334 334 337 337 335 333 333 328 327 326 326 325 325 325 325 325 325 324 324 322 322 321 320 321
321 324 323 324 329 334 338 342 340 338 341 337 338 341 340 340 343 343 340 339 340 340 340 340 338 337 339 339 340 338 333 331 328 327 326 326 325 325 325 325 326 326 325 324 323 323 323 322 322
323 322 322 324 327 333 338 340 339 338 337 335 339 339 342 334 343 344 344 342 340 341 342 342 341 340 339 338 337 335 338 330 327 327 326 325 325 325 324 325 326 326 326 325 324 323 323 323 322
322 322 321 324 330 329 337 339 340 339 337 338 340 340 342 341 343 341 343 344 344 343 343 343 343 340 339 340 339 331 334 327 327 326 325 325 323 324 326 327 327 326 325 325 325 324 323 323 322
321 321 321 324 329 329 337 336 339 340 339 340 341 339 342 342 335 339 343 344 343 342 342 341 341 341 338 333 329 329 327 327 326 323 321 323 324 327 329 326 319 316 318 321 324 324 324 323 321
320 324 322 322 327 329 333 336 339 338 340 341 340 340 341 342 337 340 341 339 338 341 341 340 338 337 332 328 327 327 327 324 322 330 330 327 329 327 315 312 310 309 311 313 317 320 323 323 323
324 324 326 324 327 327 331 334 335 334 341 342 342 341 341 341 341 342 340 335 336 339 341 339 336 332 329 328 328 325 323 323 330 331 330 330 321 315 313 311 308 310 312 313 313 314 319 321 322
326 327 327 325 323 328 329 330 326 330 340 342 342 342 341 341 342 342 338 333 332 335 338 339 335 328 328 327 326 324 325 329 331 331 327 319 315 315 313 309 310 312 314 314 314 313 315 317 318
328 327 326 326 324 324 325 326 327 333 340 342 342 341 341 341 340 340 337 333 333 332 333 337 330 326 326 324 326 327 327 331 332 329 319 316 315 314 311 311 313 314 314 313 312 311 314 316 316
326 327 327 326 324 328 329 331 331 333 338 340 341 341 341 341 340 339 336 334 333 332 331 332 330 329 328 329 329 328 332 332 330 320 317 316 315 313 311 313 314 313 313 312 312 311 314 315 318
326 327 327 326 324 329 330 331 333 333 337 338 339 339 340 340 340 340 339 335 333 332 331 332 332 332 331 331 330 330 332 330 321 318 317 315 314 312 312 313 314 312 312 312 312 311 313 314 315
327 329 328 328 326 324 328 332 330 329 335 337 337 337 338 339 339 339 340 338 335 333 332 332 332 331 331 331 330 331 330 322 319 318 316 315 314 312 313 314 313 312 311 312 311 312 312 314 315
329 326 326 326 327 328 323 329 331 328 334 335 336 337 337 334 333 333 336 338 337 334 332 331 331 331 332 332 331 331 325 320 319 317 315 314 312 313 314 314 312 312 311 310 309 309 309 310 312
328 325 325 325 326 326 326 329 331 329 334 334 335 335 334 330 331 333 334 334 334 333 334 332 330 331 331 330 331 327 321 319 317 315 314 311 312 314 313 310 310 309 310 309 308 308 309 310 311
323 324 323 324 326 328 326 327 330 332 333 331 330 330 331 332 333 333 334 334 333 332 331 331 330 330 331 330 326 321 319 317 315 314 311 312 313 311 309 307 308 308 308 308 307 308 309 310 311
327 329 327 326 329 327 325 328 329 329 326 327 328 329 329 331 332 332 332 332 331 330 328 328 330 330 330 324 321 319 317 315 313 311 311 312 311 309 308 308 308 308 308 308 308 308 308 308 309
326 329 328 328 329 327 326 329 328 325 324 324 324 327 328 329 329 329 330 329 329 328 326 329 331 330 324 321 319 317 315 313 311 311 311 310 309 308 308 308 309 309 309 309 309 309 309 309 309
328 331 324 329 325 328 327 328 327 325 325 324 325 327 331 328 328 327 328 328 328 328 329 328 327 324 321 318 316 315 312 312 311 310 310 309 307 308 308 309 310 309 309 309 308 308 308 308 308
328 324 331 329 330 330 329 328 327 328 328 327 326 327 329 327 327 327 327 327 327 326 324 321 321 320 317 316 315 313 313 312 311 310 307 306 307 308 309 310 309 310 309 308 307 307 307 307 307
329 329 326 328 329 330 329 328 328 329 329 328 327 325 325 326 326 326 325 326 324 320 318 317 317 318 316 316 314 313 313 312 311 308 306 307 308 308 309 310 310 309 307 307 307 306 307 307 308
326 326 328 330 330 328 327 328 324 325 325 324 324 325 325 324 324 323 323 322 320 318 317 317 317 317 316 315 314 314 313 312 310 305 308 308 309 309 310 310 310 309 308 307 307 307 307 307 308

GFSSGP_850_thetae_282.txt.gz
Theta_e
333 335 336 338 339 335 336 341 337 339 339 342 341 341 342 342 343 348 344 344 342 343 345 326 325 325 324 324 324 325 327 329 331 332 333 333 333 333 332 332 331 331 330 329 328 327 326 325 325
332 334 336 337 336 334 338 338 337 340 340 342 342 342 343 347 343 338 336 341 341 344 345 342 325 324 324 325 325 327 329 331 332 333 332 331 331 330 335 338 336 332 332 333 333 332 331 330 328
329 333 337 337 336 338 336 337 338 340 341 341 341 342 342 345 340 338 335 342 342 343 343 331 323 324 324 325 327 329 331 331 332 331 333 334 335 334 334 331 336 337 336 335 336 334 334 334 333
331 333 335 337 337 338 338 338 338 338 339 340 340 341 343 345 342 344 340 339 340 340 341 323 323 324 325 326 328 330 331 331 331 333 335 335 333 334 330 326 329 331 327 329 332 333 330 330 333
329 332 336 337 337 339 340 339 338 338 339 339 338 340 343 346 344 344 343 339 339 339 339 325 324 325 326 327 329 331 332 332 334 333 332 330 329 325 323 322 321 320 320 320 321 324 326 325 326
332 331 335 336 336 339 341 342 339 338 338 339 338 339 343 343 345 345 343 339 339 339 339 337 325 325 326 328 330 332 332 334 330 325 327 327 322 320 319 318 319 319 318 317 316 321 325 326 324
331 334 334 334 335 336 342 343 342 337 337 337 337 339 344 345 345 344 341 340 341 339 339 339 332 327 328 330 332 331 334 327 324 320 322 322 322 322 322 322 322 322 321 320 317 316 316 316 317
328 332 334 334 334 334 342 344 343 339 337 338 337 337 341 343 341 341 339 338 339 337 337 339 340 339 340 339 331 333 332 323 325 323 322 323 324 323 324 324 325 323 322 322 321 320 318 317 317
327 332 332 333 334 334 340 343 344 343 340 336 337 337 339 343 341 340 339 339 338 338 339 339 339 340 340 340 338 335 333 329 326 329 326 330 331 329 330 326 324 323 323 323 323 322 322 322 322
329 331 331 331 333 334 337 340 343 342 340 336 337 337 341 344 342 341 341 339 339 339 341 341 340 341 340 339 339 341 342 340 340 337 332 331 327 326 324 327 325 326 325 325 325 325 323 324 323
328 330 329 329 330 333 336 338 342 341 340 337 336 335 340 343 343 341 339 339 341 341 342 341 335 335 338 341 343 341 340 341 342 331 329 328 327 330 330 331 329 331 329 326 324 324 323 322 322
328 328 328 329 331 331 337 339 341 340 338 337 337 337 337 343 343 344 343 342 343 344 344 344 342 338 338 343 344 344 342 342 340 335 326 327 329 331 331 331 331 327 325 326 325 325 325 326 327
327 327 327 328 333 333 336 339 339 339 339 340 337 340 337 341 343 344 347 347 346 346 345 346 343 342 341 340 345 346 342 339 336 329 324 327 328 329 331 331 325 320 320 319 320 322 324 325 325
326 326 327 330 334 334 337 337 340 337 339 340 342 342 339 338 343 346 347 347 348 348 348 348 343 341 341 338 337 335 331 330 331 330 329 328 330 328 326 320 319 318 318 317 317 318 321 322 323
326 328 327 328 332 334 336 339 340 337 340 340 343 343 341 339 342 345 346 346 344 345 344 341 340 339 338 334 329 329 329 331 330 330 330 330 330 328 316 319 319 318 318 318 318 318 318 319 321
329 329 329 329 331 332 336 334 333 335 339 340 342 342 342 342 342 344 345 343 342 343 337 340 339 337 334 331 329 330 330 325 327 329 330 330 323 317 316 319 318 318 317 317 317 317 317 318 319
330 330 330 330 329 332 334 333 331 333 334 339 341 343 343 343 344 344 343 341 339 338 335 338 338 336 333 329 330 327 326 326 328 331 330 325 318 318 316 319 319 317 317 316 316 316 317 317 318
329 330 330 330 330 331 332 332 331 333 338 339 343 343 343 343 344 344 342 340 337 335 333 337 337 335 328 327 326 326 327 328 329 332 327 319 319 319 318 319 319 319 317 316 315 315 316 317 318
329 329 330 330 329 330 331 331 333 335 337 341 342 342 344 344 344 343 341 340 337 335 334 334 334 332 329 333 333 334 335 334 335 330 322 318 320 319 321 319 318 317 316 315 315 314 315 316 317
329 329 330 329 330 330 332 331 334 336 338 340 341 343 343 344 344 343 342 341 339 339 337 332 332 332 331 336 337 334 332 332 330 325 322 320 320 321 320 319 317 317 315 314 314 313 313 314 316
330 330 330 330 330 330 330 332 332 334 337 339 339 340 341 341 340 342 343 342 341 340 339 334 332 332 332 332 335 332 332 330 327 326 323 322 322 321 319 318 317 316 314 313 313 313 312 313 313
330 329 329 329 330 331 330 331 334 334 334 333 335 334 333 332 334 338 340 341 342 340 339 336 333 333 334 332 333 333 331 328 326 324 322 320 320 319 318 316 315 313 312 312 312 311 309 310 311
331 329 328 328 330 331 330 330 335 333 334 333 331 331 331 331 333 334 337 338 339 338 338 338 333 330 330 331 332 331 328 326 323 321 321 320 318 317 316 313 312 312 312 311 309 309 309 309 309
329 330 329 329 329 332 329 329 333 333 334 333 331 330 330 330 332 332 336 337 338 337 336 331 326 328 329 331 330 323 320 318 318 319 318 317 316 314 313 311 312 312 311 311 310 310 309 309 309
331 331 329 329 328 328 328 330 331 330 331 330 330 330 330 330 331 331 331 331 334 335 335 331 325 330 330 329 323 319 317 316 317 319 318 317 314 312 311 312 313 311 310 310 310 310 309 308 309
330 332 330 330 328 327 329 330 332 328 328 329 329 329 329 331 330 330 331 332 332 335 331 326 327 325 323 321 318 317 316 318 318 318 317 315 313 312 312 312 311 310 310 310 310 310 308 308 309
332 332 331 333 332 331 329 329 330 328 328 328 328 327 329 331 330 331 331 333 333 332 326 324 321 319 319 319 317 316 316 314 315 316 316 314 312 312 311 311 310 310 310 310 309 308 308 308 308
332 330 332 332 331 331 330 329 329 328 328 328 328 328 329 331 330 331 330 333 333 327 322 319 318 318 320 318 319 318 315 315 316 317 315 313 312 311 311 311 310 310 310 309 308 307 307 308 308
332 332 332 332 332 330 330 329 327 329 328 330 329 329 329 329 329 329 329 331 330 325 324 323 319 322 321 321 320 317 316 316 316 315 312 312 312 312 311 310 310 309 309 309 308 308 308 308 308
330 332 331 333 331 330 331 330 328 328 328 329 329 328 328 328 327 326 326 327 326 325 324 324 322 321 320 318 317 317 317 316 315 313 312 313 312 311 310 310 310 309 309 308 308 307 307 308 308

GFSSGP_850_thetae_285.txt.gz
Theta_e
334 335 340 342 344 338 337 334 336 336 338 340 340 342 343 344 345 351 339 341 341 343 339 325 324 324 324 324 325 326 328 330 332 333 333 332 331 331 336 336 333 332 333 334 334 333 332 331 328
336 338 339 340 337 337 337 336 338 339 338 340 341 343 342 345 339 340 340 340 340 344 342 335 325 324 324 325 326 328 330 332 332 332 331 332 332 335 333 336 336 336 332 333 335 334 333 332 334
329 337 338 339 338 337 338 336 338 339 339 339 340 340 343 341 336 337 337 338 340 342 341 335 324 324 324 326 327 329 331 332 331 332 336 336 334 333 329 330 330 327 325 326 328 330 325 326 329
335 335 337 336 337 338 337 337 337 337 337 337 338 342 342 341 343 340 338 339 340 341 343 324 323 324 325 326 328 330 331 331 331 335 334 334 333 327 324 321 318 318 317 316 316 319 324 324 321
332 334 339 337 337 337 338 337 336 336 336 336 337 341 344 344 345 342 341 340 340 340 345 324 323 324 325 327 329 331 331 333 335 333 332 330 322 321 318 318 319 320 319 319 317 315 317 320 320
333 335 337 338 336 337 338 337 336 335 335 336 336 338 341 341 341 341 340 341 340 340 342 333 324 325 326 328 329 332 331 335 330 325 326 322 320 321 321 321 321 321 321 320 319 318 316 315 315
333 335 335 336 335 338 337 338 336 335 333 335 336 336 343 343 343 342 339 339 339 340 341 342 331 326 327 329 331 332 334 326 321 320 321 322 322 322 323 323 326 322 322 322 321 321 321 320 318
331 335 335 335 336 337 337 337 336 335 332 336 338 338 340 339 340 339 338 339 339 337 338 340 341 340 340 336 332 332 333 322 324 323 322 322 329 331 330 331 328 324 324 324 325 324 323 323 322
331 334 334 334 336 336 335 337 338 335 333 334 335 337 338 338 339 339 337 337 337 337 338 338 339 339 340 342 342 334 334 329 326 330 330 327 334 332 331 329 329 329 329 328 325 326 325 324 324
331 333 333 333 334 333 335 338 335 338 335 334 335 338 340 338 338 338 339 338 338 338 338 339 339 340 340 339 342 341 343 341 344 340 339 334 332 332 331 331 330 330 329 326 328 326 326 326 326
331 331 331 331 331 333 334 335 335 337 337 335 335 336 341 341 340 339 339 339 339 340 341 342 343 343 342 341 343 341 339 339 341 343 335 334 333 334 333 330 330 329 326 323 323 324 325 325 325
330 329 330 330 331 331 334 335 334 337 336 335 334 335 340 341 342 342 340 340 341 343 344 344 343 344 342 344 345 343 341 338 336 340 335 333 334 333 333 331 330 322 321 320 319 319 320 322 325
330 329 329 329 331 332 333 334 334 335 335 335 336 337 338 341 343 344 344 344 344 345 345 345 346 347 347 346 346 344 340 337 338 336 334 334 334 335 330 328 322 322 321 320 318 318 319 320 321
329 329 329 329 332 332 333 334 334 334 334 336 338 339 338 340 342 344 346 346 347 347 346 347 348 349 349 347 345 344 343 338 336 333 333 334 330 329 329 322 323 322 321 320 319 319 320 320 320
328 329 330 330 331 333 332 334 336 333 335 336 338 340 340 338 342 344 345 346 346 346 347 349 350 349 341 343 339 339 336 333 333 331 330 330 330 330 322 322 322 322 322 320 319 319 318 318 318
330 331 330 331 331 332 330 334 335 334 334 335 337 340 341 340 341 344 347 344 344 344 343 338 343 342 340 339 337 335 334 333 332 331 327 333 330 325 324 323 322 322 322 319 319 318 318 318 317
332 332 332 332 330 332 332 332 334 332 332 333 335 340 341 343 343 344 345 343 343 345 346 345 342 341 340 337 335 336 334 328 329 333 335 333 329 325 324 324 323 322 322 320 319 318 317 317 317
331 331 331 331 331 331 331 332 332 332 333 333 335 340 342 343 345 346 344 343 342 344 345 345 344 343 336 337 335 334 335 336 337 337 335 331 327 325 324 324 323 322 320 319 318 317 317 316 317
330 330 330 331 331 330 331 331 331 333 333 333 338 341 343 342 344 346 346 343 343 343 344 344 343 343 339 339 338 336 336 338 336 337 333 329 327 325 325 324 322 320 319 318 317 316 317 315 315
330 330 331 331 332 331 331 331 332 332 335 336 338 340 342 343 343 345 346 344 344 344 344 343 342 343 341 339 339 340 338 336 335 332 329 326 326 326 324 323 320 319 318 317 315 316 316 314 314
331 331 330 330 330 330 333 332 333 334 336 337 338 340 341 340 338 339 341 344 344 344 344 343 343 342 339 340 340 339 338 336 333 330 329 326 325 324 323 321 320 318 316 314 315 315 314 314 313
330 331 330 330 330 331 331 330 335 333 334 335 336 335 334 333 333 334 336 339 341 342 342 342 342 342 339 337 339 338 336 334 330 326 323 324 324 322 321 319 318 315 315 313 314 314 313 313 313
330 329 330 330 331 332 332 328 336 334 334 334 333 332 332 332 332 332 335 336 335 337 337 340 342 340 331 329 330 336 333 327 324 323 323 321 321 320 318 316 315 315 313 314 313 312 312 311 312
330 331 332 332 332 333 332 328 335 334 332 333 332 331 331 330 331 332 333 333 333 333 333 337 341 342 336 334 334 325 320 319 321 324 322 322 321 319 317 315 315 313 314 313 312 313 311 311 310
332 332 332 333 331 329 330 327 334 331 330 329 328 328 329 330 331 331 332 332 333 331 332 334 337 339 340 336 332 330 323 321 323 323 322 322 320 318 316 316 314 314 312 312 311 311 311 311 310
333 333 332 332 332 329 330 331 332 329 328 328 328 328 328 328 329 331 331 332 330 330 333 335 332 333 333 331 329 328 327 324 321 322 322 321 319 317 315 315 314 313 312 311 311 311 309 309 309
334 335 332 337 335 332 331 331 331 330 329 329 328 328 328 328 331 331 331 332 331 331 333 333 328 329 329 328 328 327 326 323 323 322 321 319 317 316 314 314 313 312 311 311 310 309 309 308 308
333 331 333 331 333 333 330 330 330 330 330 329 328 328 329 330 330 331 331 331 332 331 330 329 327 326 326 327 326 325 322 320 321 321 320 317 316 314 314 313 311 312 311 309 309 309 308 308 309
334 334 333 332 333 332 331 330 331 330 330 330 329 329 328 329 330 329 329 329 331 328 327 326 326 326 325 325 325 322 321 319 321 320 318 315 315 313 314 311 311 311 310 310 309 308 308 308 309
330 332 331 333 331 330 332 331 331 331 330 330 329 330 330 329 328 327 327 328 327 327 327 327 327 326 325 324 322 321 319 322 320 317 315 313 312 312 311 311 311 310 310 309 308 308 307 309 309

GFSSGP_850_thetae_288.txt.gz
Theta_e
328 337 340 343 344 343 335 336 337 339 339 338 340 343 342 342 346 343 339 342 344 332 322 322 322 322 323 324 325 327 330 331 333 332 331 331 332 335 337 336 335 328 328 330 331 331 331 329 331
329 338 340 340 342 337 338 337 339 339 340 340 341 342 339 339 340 339 341 341 344 336 323 323 322 322 323 325 326 329 331 332 332 331 333 333 333 330 329 330 325 320 318 317 317 317 317 319 321
331 337 339 339 339 339 337 337 338 337 337 340 339 341 339 338 338 338 339 340 345 343 337 323 323 323 324 325 328 330 331 332 331 335 335 332 331 324 324 320 318 318 318 317 316 315 314 314 315
337 335 337 339 340 338 336 337 337 337 336 337 343 342 340 342 339 337 338 340 342 342 342 326 323 323 324 326 329 330 332 331 333 334 332 327 322 319 318 318 319 320 320 319 318 317 316 314 314
331 336 341 340 338 338 336 337 336 336 335 338 339 342 341 343 340 339 340 340 341 345 344 322 322 323 325 327 329 331 331 332 334 330 326 320 319 319 319 320 321 321 321 321 321 321 321 319 316
331 335 340 338 337 339 338 337 336 335 336 336 336 339 339 341 341 340 340 340 341 344 343 324 323 324 325 327 329 332 331 332 322 321 322 320 320 321 322 323 326 323 323 323 324 323 323 322 319
333 336 337 339 340 337 338 337 335 334 334 338 338 341 342 342 341 339 340 340 339 342 342 341 324 325 327 329 332 332 332 324 319 319 320 321 323 330 331 331 329 328 328 327 325 324 324 324 324
332 334 336 336 338 338 337 337 336 332 335 338 335 338 340 341 341 339 339 339 339 339 344 342 338 331 331 330 332 331 332 324 322 321 322 323 333 333 334 331 330 330 330 328 326 327 326 326 324
331 334 336 336 335 337 336 337 335 334 335 333 336 335 337 340 339 338 338 338 338 336 338 341 341 342 340 342 342 339 332 329 324 328 331 330 336 334 334 332 331 330 329 326 326 323 323 325 326
332 333 334 335 335 338 338 336 336 335 335 336 337 338 338 340 339 338 338 338 337 337 337 338 339 341 339 342 343 340 338 337 337 341 340 333 333 331 333 333 331 331 325 322 321 321 320 323 326
331 331 331 331 331 335 338 336 336 335 336 334 336 340 339 339 339 339 338 337 338 339 339 341 339 339 341 342 342 344 340 334 335 340 339 333 330 335 334 333 332 327 323 321 321 320 318 319 320
329 330 330 330 331 331 334 337 338 336 336 334 336 339 341 340 340 340 340 339 343 342 342 344 344 342 337 341 344 345 344 340 337 336 337 334 334 334 334 330 330 322 322 322 321 318 317 318 319
330 330 329 330 331 331 334 334 336 336 334 335 335 337 341 341 342 342 344 342 342 343 345 344 345 346 345 345 344 344 344 342 340 336 336 333 328 331 331 329 323 323 323 322 321 318 319 319 319
330 329 329 330 331 332 331 334 335 336 335 335 336 337 337 341 343 344 344 346 347 346 346 346 349 349 349 349 344 338 341 338 335 334 333 332 329 330 330 327 323 323 323 323 321 319 319 319 318
329 329 330 330 331 331 333 334 334 332 333 335 337 337 339 340 343 345 346 346 347 347 346 347 341 349 348 345 340 341 336 336 334 333 332 329 328 331 327 325 324 323 323 322 320 320 319 318 318
330 332 332 332 331 331 332 336 335 333 334 335 337 335 337 341 343 346 346 346 345 347 346 337 344 344 336 341 338 334 336 336 333 330 329 330 334 330 326 325 324 324 323 322 321 320 319 319 317
332 333 332 332 332 331 331 334 335 334 334 332 332 336 336 334 344 345 347 344 344 346 348 342 337 342 342 339 336 337 336 335 333 334 334 336 335 331 326 325 325 324 323 321 320 320 319 317 317
332 333 333 332 332 331 329 330 333 333 333 332 331 340 340 339 344 346 345 343 344 346 348 347 344 343 337 340 336 335 336 333 328 330 333 330 332 329 326 325 323 324 322 320 320 319 316 317 318
330 330 332 333 332 331 331 330 332 332 332 332 334 335 338 342 344 342 345 344 344 345 347 347 345 344 336 340 340 339 340 340 337 335 336 332 329 327 325 325 324 322 320 320 318 316 317 316 315
329 332 332 331 331 331 330 331 331 333 334 333 334 337 338 341 345 347 343 344 344 345 345 345 344 344 340 340 341 340 336 333 335 333 332 329 330 328 326 325 324 321 321 319 314 316 315 314 313
332 333 332 331 330 330 332 332 333 334 336 336 337 339 339 340 343 342 341 336 345 345 345 345 344 343 338 337 337 340 339 338 334 332 327 327 325 324 322 323 320 320 319 316 314 313 312 313 313
330 330 329 328 329 330 331 335 336 336 336 336 336 336 335 334 333 337 333 344 343 343 345 344 343 337 338 337 334 337 332 331 334 327 324 322 322 322 321 320 319 318 316 315 313 314 313 313 313
328 328 329 331 332 332 334 334 338 335 336 334 334 332 332 333 334 333 334 337 336 333 338 341 338 336 341 331 324 326 335 334 329 324 323 322 323 323 321 319 318 316 316 313 314 312 313 313 312
333 333 332 333 333 337 335 332 337 335 332 330 329 330 330 330 332 331 334 333 330 332 332 339 338 338 335 328 328 323 322 324 322 321 322 323 323 322 320 319 317 316 313 314 313 313 311 312 312
332 333 335 334 334 335 332 333 335 331 328 328 328 328 328 328 328 332 331 332 333 333 332 336 340 340 340 340 338 335 332 330 325 324 322 324 321 320 319 317 316 315 313 314 312 312 311 311 310
332 335 334 334 337 335 334 334 332 331 330 329 329 329 329 330 331 331 333 333 332 332 333 335 334 333 333 334 332 331 330 329 323 325 323 321 321 320 318 316 314 314 313 312 312 310 309 309 310
333 334 334 337 337 335 332 333 332 331 330 329 329 329 330 330 330 332 332 329 329 328 332 333 330 328 327 329 330 329 329 327 323 323 321 321 320 317 317 314 315 313 311 311 311 309 310 309 309
332 333 336 335 338 335 330 333 332 332 331 331 330 329 330 330 330 330 332 331 332 331 328 329 329 328 327 327 327 328 326 323 320 322 321 319 317 316 314 313 314 311 311 310 310 310 310 309 308
336 334 334 331 333 332 329 333 332 332 333 333 329 331 331 330 329 328 328 328 328 328 328 328 328 327 327 326 326 324 323 321 322 321 318 316 314 312 312 313 311 311 311 310 310 309 309 309 309
332 336 337 333 333 333 334 332 330 330 330 331 331 330 329 329 328 328 328 327 328 328 329 329 328 328 327 326 324 322 322 322 320 317 316 313 312 311 311 310 308 309 310 310 309 309 308 310 310